Location: Newark
(25.6667°N, 138.4167°E)
Time: 08:58:14
(UTC+00:00)

Envisat - Visible Passes

Search period start: 16 September 2019 00:00
Search period end: 26 September 2019 00:00
Orbit: 764 x 766 km, 98.1° (Epoch: 16 September)

Date Brightness Start Highest point End Pass type
(mag) Time Alt. Az. Time Alt. Az. Time Alt. Az.
16 Sep 5.7 10:07:42 10° SW 10:11:22 20° W 10:15:03 10° NW visible
17 Sep 3.9 09:29:36 10° S 09:34:31 52° W 09:39:28 10° NNW visible
19 Sep 5.2 09:55:52 10° SSW 10:00:05 26° W 10:04:19 10° NW visible
20 Sep 3.4 09:18:13 10° S 09:23:16 70° WSW 09:28:20 10° NNW visible
21 Sep 6.0 10:23:18 10° SW 10:25:42 13° W 10:28:07 10° WNW visible
22 Sep 4.7 09:44:11 10° SSW 09:48:47 35° W 09:53:24 10° NNW visible
23 Sep 3.0 09:06:57 10° SSE 09:12:01 89° E 09:17:07 10° NNW visible
24 Sep 5.8 10:11:00 10° SW 10:14:24 18° W 10:17:48 10° NW visible
25 Sep 4.1 09:32:40 10° S 09:37:31 46° W 09:42:23 10° NNW visible
